www.pogodaiklimat.ru

Погода и климат >> Архив погоды >> Вьетнам >> Хюэ


ПОГОДА в Хюэ

  • Прогноз погоды в Хюэ
  • Монитор погоды в Хюэ

АРХИВ ПОГОДЫ в Хюэ

Время (UTC), дата Ветер
(напр.,м/с)
 
Видим.   Явления Облачность Т
(С)
Тd
(С)
f
(%)
Тe
(С)
Тes
(С)
Комфортность P
(гПа)
Po
(гПа)
Тmin
(С)
Tmax
(С)
R
(мм)
R24
(мм)
S
(см)
00 16.04 штиль 0 20 км 9/0
[Cs]
+26.5 +25.3 93 +38 +41 очень
душно
1010.5 1009.5 +25.0
03 16.04 Ю 1 20 км 9/0
[Cs]
+33.4 +25.8 65 +49 +66 опасность
перегрева
1010.8 1009.8
06 16.04 С 2 20 км 9/4 600 м
[Cb cap Cs]
+33.5 +27.0 69 +52 +62 опасность
перегрева
1008.5 1007.5
09 16.04 В 2 20 км 9/0
[Cs]
+32.6 +26.3 70 +49 +54 опасность
перегрева
1006.6 1005.6
12 16.04 С 1 20 км 9/0
[Ac trans Cs]
+29.3 +26.6 85 +45 +45 опасность
перегрева
1008.6 1007.6 +34.5
15 16.04 СЗ 1 20 км 9/0
[Cs]
+27.3 +25.8 92 +41 +41 опасность
перегрева
1011.0 1010.0
18 16.04 СЗ 2 20 км 9/3 600 м
[Cu med, cong Cs]
+26.8 +25.8 94 +40 +40 очень
душно
1010.0 1009.0
21 16.04 С 2 20 км 9/9 600 м
[Cu Sc]
+27.0 +25.7 93 +40 +40 очень
душно
1010.1 1009.1
00 17.04 ЮЗ 2 20 км 9/3 600 м
[Cu Sc Cs]
+27.8 +26.4 92 +42 +44 опасность
перегрева
1011.1 1010.1 +26.4
03 17.04 З 1 20 км 9/3 600 м
[Cu med, cong Cs]
+32.4 +25.8 68 +48 +60 опасность
перегрева
1011.6 1010.6
06 17.04 СВ 2 20 км 9/8 600 м
[Cu med, cong Cs]
+32.2 +26.3 71 +48 +52 опасность
перегрева
1009.2 1008.2
09 17.04 ЮВ 1 20 км 9/9 600 м
[Cu med, cong]
+29.6 +26.2 82 +45 +46 опасность
перегрева
1006.8 1005.8
12 17.04 Ю 1 20 км 10/0
[Cs]
+28.3 +26.6 91 +44 +44 опасность
перегрева
1007.5 1006.5 +33.0
15 17.04 штиль 0 20 км 10/0
[Cs]
+26.8 +25.9 95 +40 +40 очень
душно
1008.7 1007.7
18 17.04 штиль 0 20 км 9/0
[Cs]
+25.4 +24.3 94 +35 +35 очень
душно
1006.6 1005.6
21 17.04 штиль 0 20 км 9/0
[Cs]
+24.6 +23.8 95 +33 +33 очень
душно
1006.6 1005.6
00 18.04 ЮВ 1 20 км 9/0
[Ac trans Cs]
+26.4 +24.6 90 +37 +39 очень
душно
1008.1 1007.1 +24.3
03 18.04 штиль 0 20 км 9/0
[Cs]
+33.6 +25.0 61 +47 +67 опасность
перегрева
1008.8 1007.8
06 18.04 В 3 20 км 8/0
[Cs]
+36.4 +26.8 58 +54 +68 опасность
перегрева
1005.4 1004.4
09 18.04 В 2 20 км 9/3 600 м
[Cb cap Cs]
+35.5 +25.9 58 +51 +54 опасность
перегрева
1003.4 1002.4
12 18.04 штиль 0 20 км 9/3 600 м
[Cu med, cong Cs]
+31.8 +27.1 76 +50 +50 опасность
перегрева
1004.7 1003.7 +37.5
15 18.04 штиль 0 20 км 8/0
[Cs]
+28.8 +26.5 87 +44 +44 опасность
перегрева
1006.5 1005.5
18 18.04 штиль 0 20 км 8/0
[Cs]
+27.8 +25.2 86 +40 +40 очень
душно
1004.5 1003.5
21 18.04 штиль 0 20 км 8/0
[Cs]
+26.0 +25.1 95 +37 +37 очень
душно
1003.8 1002.8
00 19.04 Ю 1 20 км ясно +28.6 +25.7 84 +42 +45 опасность
перегрева
1005.3 1004.3 +25.4
03 19.04 Ю 1 20 км ясно +36.8 +26.0 54 +52 +73 опасность
перегрева
1006.0 1005.0
06 19.04 В 2 20 км 8/1 600 м
[Cu hum Cs]
+38.4 +26.4 51 +55 +70 опасность
перегрева
1003.5 1002.5
09 19.04 В 2 20 км 8/1 600 м
[Cb cap Cs]
+36.4 +26.1 56 +52 +56 опасность
перегрева
1001.0 1000.0
12 19.04 штиль 0 20 км 8/0
[Cs]
+31.4 +26.9 77 +49 +49 опасность
перегрева
1002.8 1001.8 +39.4
15 19.04 С 1 20 км 8/0
[Cs]
+28.9 +26.8 88 +45 +45 опасность
перегрева
1005.0 1004.0
18 19.04 штиль 0 20 км 6/0
[Cs]
+27.5 +26.2 93 +42 +42 опасность
перегрева
1003.3 1002.3
21 19.04 штиль 0 20 км 6/0
[Cs]
+26.4 +24.8 91 +38 +38 очень
душно
1002.9 1001.9
00 20.04 штиль 0 20 км 8/0
[Cs]
+29.0 +26.4 86 +44 +47 опасность
перегрева
1004.6 1003.6 +25.8
03 20.04 Ю 2 20 км 8/0
[Cs]
+37.0 +26.2 54 +53 +68 опасность
перегрева
1004.8 1003.8
06 20.04 С 2 20 км 8/3 600 м
[Cu med, cong Cs]
+40.6 +26.8 46 +57 +69 опасность
перегрева
1001.9 1000.9
09 20.04 ЮВ 1 20 км 9/6 600 м
[Cb cap Cs]
+36.9 +23.7 47 +48 +50 опасность
перегрева
1000.7 999.7
12 20.04 штиль 0 20 км 10/0
[Cs]
+32.5 +25.1 65 +46 +46 опасность
перегрева
1001.8 1000.8 +40.6
15 20.04 штиль 0 20 км 9/0
[Cs]
+29.6 +24.9 76 +42 +42 опасность
перегрева
1004.3 1003.3
18 20.04 Ю 1 20 км 9/0
[Cs]
+27.8 +24.5 82 +39 +39 очень
душно
1003.1 1002.1
21 20.04 В 1 20 км 6/0
[Cs]
+27.5 +23.8 80 +38 +38 очень
душно
1002.5 1001.5
00 21.04 штиль 0 20 км 6/0
[Ac trans Cs]
+29.5 +25.7 80 +44 +47 опасность
перегрева
1004.4 1003.4 +26.7
03 21.04 ЮЗ 1 20 км 8/0
[Cs]
+36.9 +24.7 50 +50 +67 опасность
перегрева
1005.2 1004.2
06 21.04 В 3 20 км 9/3 600 м
[Cb cap Cs]
+37.2 +26.4 54 +53 +63 опасность
перегрева
1003.5 1002.5
09 21.04 штиль 0 20 км 9/8 600 м
[Cb cap Cs]
+34.5 +25.2 59 +49 +50 опасность
перегрева
1002.5 1001.5
12 21.04 штиль 0 20 км 9/6
[Cu Sc Cs]
+31.4 +26.4 75 +48 +48 опасность
перегрева
1003.5 1002.5 +38.6
15 21.04 Ю 1 20 км 9/3 600 м
[Cu hum Cs]
+30.4 +25.7 76 +45 +45 опасность
перегрева
1005.5 1004.5
18 21.04 штиль 0 20 км 9/0
[Cs]
+28.2 +26.8 92 +44 +44 опасность
перегрева
1004.6 1003.6
21 21.04 штиль 0 20 км 9/0
[Cs]
+26.6 +25.7 95 +39 +39 очень
душно
1004.4 1003.4
00 22.04 СЗ 1 20 км 9/3 600 м
[Cu hum Cs]
+28.2 +25.6 86 +42 +44 опасность
перегрева
1007.0 1006.0 +25.9
03 22.04 С 3 20 км 9/8 600 м
[Cu med, cong Cs]
+29.9 +27.0 84 +47 +50 опасность
перегрева
1009.2 1008.2
06 22.04 З 2 20 км 9/3 600 м
[Cu med, cong Cs]
+33.8 +27.2 69 +53 +64 опасность
перегрева
1006.7 1005.7
09 22.04 Ю 2 20 км 9/4 600 м
[Cb cap Cs]
+33.8 +28.1 72 +55 +57 опасность
перегрева
1003.6 1002.6
12 22.04 СВ 1 20 км 9/0
[Cs]
+29.3 +26.3 84 +45 +45 опасность
перегрева
1005.1 1004.1 +35.2
15 22.04 штиль 0 20 км 9/1 1500 м
[Sc Ac trans Cs]
+27.1 +25.5 91 +40 +40 очень
душно
1007.4 1006.4
18 22.04 С 1 20 км 9/0
[Cs]
+26.0 +24.8 93 +37 +37 очень
душно
1007.6 1006.6
21 22.04 штиль 0 20 км 9/9 600 м
[Cu Sc]
+26.0 +25.2 95 +37 +37 очень
душно
1007.2 1006.2

 

Местоположение метеостанции Хюэ (Вьетнам): широта 16.43 долгота 107.58 высота над уровнем моря 9 м.

В архиве по умолчанию представлена погода в Хюэ за последнюю неделю. Архивные данные за месяц целиком и за предыдущие месяцы, начиная с января 2011 года, Вы можете получить, выбрав интересующий диапазон дат из раскрывающегося списка и нажав кнопку "Ввод!".


*Определитесь, кто Вы:
робот инопланетянин человек

Внимание! Время в таблицах - всемирное. Для получения местного времени необходимо прибавить поправку, которая равна 7 ч.

Смотрите также архив погоды в соседних городах и на ближайших метеорологических станциях:

Погода в Дананге (Вьетнам) (91 км)
Погода в Сараване (Лаос) (148 км)
Погода в Секонге (Лаос) (150 км)
Погода в Донгхое (Вьетнам) (157 км)
Погода в Куангнгае (Вьетнам) (193 км)
Погода в Аттапы (Лаос) (197 км)
Погода в Паксе (Лаос) (241 км)
Погода в Плейку (Вьетнам) (276 км)
Погода в Сено (Лаос) (276 км)
Погода в Хатине (Вьетнам) (278 км)

Пояснения к столбцам:

Ветер - указаны скорость ветра в м/с - средняя за 10 мин, порывы в срок и между сроками (в фигурных скобках) и направление, откуда дует ветер: С - северный, СВ - северо-восточный, В - восточный, ЮВ - юго-восточный, Ю - южный, ЮЗ - юго-западный, З - западный, СЗ - северо-западный.
Видимость - горизонтальная дальность видимости в метрах или километрах. При видимости от 1 до 10 км при отсутствии осадков обычно наблюдается дымка, при ухудшении видимости до 1 км и менее - туман. В сухую погоду видимость может ухудшаться дымом, пылью или мглою.
Явления - указаны атмосферные явления, наблюдавшиеся в срок или в последний час перед сроком; фигурными скобками обозначены явления, наблюдавшиеся между сроками (за 1-3 часа до срока); квадратными скобками обозначены град или гололедные отложения с указанием их диаметра в мм.
Облачность - указаны через наклонную черту общая и нижняя облачность в баллах и высота нижней границы облаков в метрах; квадратными скобками обозначены формы облаков: Ci - перистые, Cs - перисто-слоистые, Cc - перисто-кучевые, Ac - высококучевые, As - высокослоистые, Sc - слоисто-кучевые, Ns - слоисто-дождевые, Cu - кучевые, Cb - кучево-дождевые. Подробнее классификацию облаков см. в Атласе облаков (PDF).
T - Температура воздуха - температура, измеренная на высоте 2 м над землей.
Td - Температура точки росы - температура, при понижении до которой содержащийся в воздухе водяной пар достигнет насыщения.
f - Относительная влажность воздуха - влажноcть воздуха, измеренная на высоте 2 м над землей.
Te - Эффективная температура - температура, которую ощущает одетый по сезону человек в тени. Характеристика душности погоды. При расчете учитывается влияние влажности воздуха и скорости ветра на теплоощущения человека.
Tes - Эффективная температура на солнце - температура, которую ощущает человек, с поправкой на солнечный нагрев. Характеристика знойности погоды. Зависит от высоты солнца над горизонтом, облачности и скорости ветра. Ночью, в пасмурную погоду, а также при ветре 12 м/с и более поправка равна нулю.
P - Атмосферное давление - приведенное к уровню моря атмосферное давление.
Po - Атмосферное давление - измеренное на уровне метеостанции атмосферное давление.
Tmin - Минимальная температура - минимум температуры воздуха на высоте 2 м над землей.
Tmax - Максимальная температура - максимум температуры воздуха на высоте 2 м над землей.
R - Количество осадков - Количество выпавших осадков за период времени, мм. При наведении курсора мыши на число - период времени, за который выпало указанное количество осадков.
R24 - Количество осадков - Количество выпавших осадков за 24 часа, мм.
S - Снежный покров - Высота снежного покрова, см. При наведении курсора мыши на число - состояние снежного покрова и степень покрытия местности в баллах.